| time (UTC) | temp F | wind direction | speed MPH | gust MPH | rain 1hr in | rain 24hr in | rain mn in | humidity % | barometer mb |
| 20260504081521 | 46 | 285 | 5.0 | 9.0 | 0.00 | 0.00 | 0.00 | 85 | 1009.6 |
| 20260504044602 | 41 | 38 | 0.0 | 0.0 | 0.00 | 0.00 | 0.00 | 75 | 1009.6 |
| 20260504043053 | 41 | 38 | 0.0 | 0.0 | 0.00 | 0.00 | 0.00 | 76 | 1009.5 |
| 20260504041550 | 41 | 338 | 0.0 | 0.0 | 0.00 | 0.00 | 0.00 | 76 | 1009.7 |
| 20260504034550 | 41 | 338 | 0.0 | 0.0 | 0.00 | 0.00 | 0.00 | 75 | 1009.7 |
| 20260504033052 | 41 | 338 | 0.0 | 0.0 | 0.00 | 0.00 | 0.00 | 74 | 1009.8 |
| 20260504031546 | 41 | 338 | 0.0 | 0.0 | 0.00 | 0.00 | 0.00 | 73 | 1009.8 |
| 20260504030046 | 41 | 317 | 0.0 | 3.0 | 0.00 | 0.00 | 0.00 | 73 | 1009.8 |
| 20260504024547 | 41 | 321 | 1.0 | 3.0 | 0.00 | 0.00 | 0.00 | 73 | 1009.8 |
| 20260504023045 | 41 | 16 | 0.0 | 4.0 | 0.00 | 0.00 | 0.00 | 73 | 1010.0 |
| 20260504021547 | 41 | 15 | 1.0 | 4.0 | 0.00 | 0.00 | 0.00 | 73 | 1009.8 |
| 20260504020043 | 41 | 26 | 4.0 | 10.0 | 0.00 | 0.00 | 0.00 | 73 | 1009.9 |
| 20260504014545 | 41 | 319 | 7.0 | 11.0 | 0.00 | 0.00 | 0.00 | 72 | 1009.9 |
| 20260504013051 | 41 | 326 | 2.0 | 11.0 | 0.00 | 0.00 | 0.00 | 73 | 1010.0 |
| 20260504011539 | 40 | 333 | 6.0 | 11.0 | 0.00 | 0.00 | 0.00 | 73 | 1010.0 |
| 20260504010039 | 40 | 286 | 5.0 | 12.0 | 0.00 | 0.00 | 0.00 | 74 | 1010.0 |
| 20260504004534 | 40 | 318 | 5.0 | 11.0 | 0.00 | 0.00 | 0.00 | 74 | 1009.9 |
| 20260504003036 | 40 | 325 | 3.0 | 10.0 | 0.00 | 0.00 | 0.00 | 77 | 1009.9 |
| 20260504001537 | 40 | 348 | 4.0 | 11.0 | 0.00 | 0.00 | 0.00 | 77 | 1009.9 |
| 20260504000032 | 40 | 312 | 2.0 | 9.0 | 0.00 | 0.00 | 0.00 | 77 | 1009.8 |
| 20260503234531 | 40 | 300 | 6.0 | 14.0 | 0.00 | 0.00 | 0.00 | 76 | 1009.8 |
| 20260503233028 | 40 | 320 | 4.0 | 10.0 | 0.00 | 0.00 | 0.00 | 76 | 1009.8 |
| 20260503231526 | 40 | 289 | 3.0 | 12.0 | 0.00 | 0.00 | 0.00 | 77 | 1009.7 |
| 20260503230026 | 40 | 330 | 8.0 | 12.0 | 0.00 | 0.00 | 0.00 | 77 | 1009.7 |
| 20260503224523 | 40 | 311 | 5.0 | 12.0 | 0.00 | 0.00 | 0.00 | 77 | 1009.8 |
| 20260503223021 | 40 | 355 | 8.0 | 16.0 | 0.00 | 0.00 | 0.00 | 77 | 1009.9 |
| 20260503221523 | 40 | 322 | 8.0 | 14.0 | 0.00 | 0.00 | 0.00 | 77 | 1009.7 |
| 20260503220022 | 40 | 325 | 8.0 | 18.0 | 0.00 | 0.00 | 0.00 | 78 | 1009.8 |
| 20260503214522 | 40 | 290 | 8.0 | 18.0 | 0.00 | 0.00 | 0.00 | 78 | 1009.6 |
| 20260503213014 | 41 | 338 | 10.0 | 17.0 | 0.00 | 0.00 | 0.00 | 77 | 1009.6 |
| 20260503211512 | 41 | 355 | 8.0 | 14.0 | 0.00 | 0.00 | 0.00 | 77 | 1009.6 |
| 20260503210012 | 41 | 314 | 8.0 | 17.0 | 0.00 | 0.00 | 0.00 | 76 | 1009.5 |
| 20260503204517 | 41 | 325 | 13.0 | 19.0 | 0.00 | 0.00 | 0.00 | 76 | 1009.5 |
| 20260503203010 | 41 | 303 | 9.0 | 17.0 | 0.00 | 0.00 | 0.00 | 76 | 1009.4 |
| 20260503201510 | 41 | 326 | 10.0 | 16.0 | 0.00 | 0.00 | 0.00 | 75 | 1009.3 |
| 20260503200007 | 41 | 317 | 9.0 | 16.0 | 0.00 | 0.00 | 0.00 | 75 | 1009.4 |
| 20260503194505 | 42 | 328 | 7.0 | 16.0 | 0.00 | 0.00 | 0.00 | 75 | 1009.4 |
| 20260503193003 | 42 | 293 | 9.0 | 16.0 | 0.00 | 0.00 | 0.00 | 75 | 1009.2 |
| 20260503191501 | 42 | 331 | 9.0 | 18.0 | 0.00 | 0.00 | 0.00 | 74 | 1009.2 |
| 20260503190103 | 42 | 340 | 12.0 | 15.0 | 0.00 | 0.00 | 0.00 | 73 | 1009.2 |
| 20260503184657 | 43 | 301 | 10.0 | 16.0 | 0.00 | 0.00 | 0.00 | 74 | 1009.1 |
| 20260503183057 | 43 | 327 | 8.0 | 15.0 | 0.00 | 0.00 | 0.00 | 72 | 1009.0 |
| 20260503181602 | 44 | 323 | 8.0 | 14.0 | 0.00 | 0.00 | 0.00 | 73 | 1009.0 |
| 20260503180106 | 45 | 306 | 8.0 | 16.0 | 0.00 | 0.00 | 0.00 | 72 | 1009.1 |
| 20260503174554 | 45 | 326 | 10.0 | 16.0 | 0.00 | 0.00 | 0.00 | 71 | 1009.1 |
| 20260503173104 | 46 | 290 | 7.0 | 15.0 | 0.00 | 0.00 | 0.00 | 72 | 1009.1 |
| 20260503171552 | 46 | 344 | 10.0 | 15.0 | 0.00 | 0.00 | 0.00 | 69 | 1009.1 |